| time (UTC) | temp F | wind direction | speed knots | gust knots | rain 1hr in | rain 24hr in | rain mn in | humidity % | barometer mb |
| 20260505075533 | 64 | 144 | 0.9 | 1.7 | 0.00 | 0.00 | 0.00 | 72 | 1004.9 |
| 20260505075030 | 64 | 299 | 4.3 | 11.3 | 0.00 | 0.00 | 0.00 | 71 | 1004.7 |
| 20260505074527 | 64 | 230 | 0.9 | 1.7 | 0.00 | 0.00 | 0.00 | 72 | 1004.8 |
| 20260505074024 | 64 | 211 | 0.9 | 0.9 | 0.00 | 0.00 | 0.00 | 73 | 1004.8 |
| 20260505073522 | 64 | 140 | 0.9 | 4.3 | 0.00 | 0.00 | 0.00 | 72 | 1004.8 |
| 20260505073020 | 64 | 198 | 4.3 | 5.2 | 0.00 | 0.00 | 0.00 | 72 | 1004.4 |
| 20260505072515 | 64 | 219 | 3.5 | 7.8 | 0.00 | 0.00 | 0.00 | 71 | 1004.4 |
| 20260505072012 | 64 | 233 | 1.7 | 4.3 | 0.00 | 0.00 | 0.00 | 71 | 1004.4 |
| 20260505071507 | 64 | 119 | 1.7 | 2.6 | 0.00 | 0.00 | 0.00 | 71 | 1004.3 |
| 20260505071006 | 64 | 133 | 0.9 | 2.6 | 0.00 | 0.00 | 0.00 | 70 | 1004.5 |
| 20260505070503 | 64 | 288 | 0.9 | 4.3 | 0.00 | 0.00 | 0.00 | 71 | 1004.2 |
| 20260505065958 | 65 | 229 | 0.9 | 2.6 | 0.00 | 0.00 | 0.00 | 70 | 1004.1 |
| 20260505065455 | 64 | 205 | 2.6 | 2.6 | 0.00 | 0.00 | 0.00 | 71 | 1004.4 |
| 20260505064951 | 64 | 215 | 2.6 | 2.6 | 0.00 | 0.00 | 0.00 | 71 | 1004.3 |
| 20260505064448 | 64 | 214 | 3.5 | 4.3 | 0.00 | 0.00 | 0.00 | 71 | 1004.0 |
| 20260505063947 | 64 | 157 | 0.9 | 2.6 | 0.00 | 0.00 | 0.00 | 71 | 1004.2 |
| 20260505063443 | 65 | 178 | 0.9 | 0.9 | 0.00 | 0.00 | 0.00 | 71 | 1004.3 |
| 20260505062939 | 65 | 128 | 3.5 | 5.2 | 0.00 | 0.00 | 0.00 | 70 | 1004.3 |
| 20260505062437 | 65 | 121 | 0.0 | 1.7 | 0.00 | 0.00 | 0.00 | 70 | 1004.5 |
| 20260505061933 | 65 | 113 | 1.7 | 4.3 | 0.00 | 0.00 | 0.00 | 70 | 1004.5 |
| 20260505061432 | 65 | 272 | 2.6 | 7.0 | 0.00 | 0.00 | 0.00 | 70 | 1004.6 |
| 20260505060929 | 65 | 251 | 0.9 | 1.7 | 0.00 | 0.00 | 0.00 | 70 | 1004.7 |
| 20260505060426 | 65 | 208 | 2.6 | 2.6 | 0.00 | 0.00 | 0.00 | 69 | 1004.7 |
| 20260505055922 | 65 | 254 | 1.7 | 1.7 | 0.00 | 0.00 | 0.00 | 70 | 1004.8 |
| 20260505055418 | 65 | 220 | 1.7 | 2.6 | 0.00 | 0.00 | 0.00 | 71 | 1004.9 |
| 20260505054915 | 64 | 229 | 1.7 | 2.6 | 0.00 | 0.00 | 0.00 | 72 | 1004.9 |
| 20260505054412 | 65 | 281 | 1.7 | 2.6 | 0.00 | 0.00 | 0.00 | 71 | 1005.0 |
| 20260505053910 | 65 | 240 | 0.9 | 4.3 | 0.00 | 0.00 | 0.00 | 74 | 1005.1 |
| 20260505053407 | 65 | 124 | 0.0 | 1.7 | 0.00 | 0.00 | 0.00 | 71 | 1005.1 |
| 20260505052904 | 65 | 127 | 1.7 | 6.1 | 0.00 | 0.00 | 0.00 | 70 | 1005.2 |
| 20260505052401 | 65 | 216 | 2.6 | 2.6 | 0.00 | 0.00 | 0.00 | 71 | 1005.2 |
| 20260505051858 | 64 | 205 | 0.9 | 5.2 | 0.00 | 0.00 | 0.00 | 73 | 1005.3 |
| 20260505051355 | 65 | 244 | 1.7 | 1.7 | 0.00 | 0.00 | 0.00 | 72 | 1005.4 |
| 20260505050853 | 64 | 130 | 0.9 | 1.7 | 0.00 | 0.00 | 0.00 | 73 | 1005.3 |
| 20260505050351 | 63 | 191 | 0.9 | 1.7 | 0.00 | 0.00 | 0.00 | 75 | 1005.2 |
| 20260505041319 | 62 | 199 | 0.9 | 1.7 | 0.00 | 0.00 | 0.00 | 79 | 1005.2 |
| 20260505040816 | 62 | 182 | 0.0 | 0.9 | 0.00 | 0.00 | 0.00 | 79 | 1005.2 |
| 20260505040313 | 63 | 145 | 0.0 | 0.0 | 0.00 | 0.00 | 0.00 | 79 | 1005.3 |
| 20260505035810 | 64 | 142 | 0.0 | 0.9 | 0.00 | 0.00 | 0.00 | 73 | 1005.2 |
| 20260505035305 | 63 | 198 | 0.9 | 0.9 | 0.00 | 0.00 | 0.00 | 74 | 1005.1 |
| 20260505034803 | 63 | 266 | 3.5 | 4.3 | 0.00 | 0.00 | 0.00 | 75 | 1005.2 |
| 20260505034300 | 64 | 126 | 1.7 | 2.6 | 0.00 | 0.00 | 0.00 | 74 | 1005.3 |
| 20260505033756 | 65 | 94 | 1.7 | 1.7 | 0.00 | 0.00 | 0.00 | 71 | 1005.2 |
| 20260505033254 | 65 | 162 | 0.9 | 4.3 | 0.00 | 0.00 | 0.00 | 72 | 1005.3 |
| 20260505032752 | 65 | 234 | 0.9 | 4.3 | 0.00 | 0.00 | 0.00 | 72 | 1005.3 |
| 20260505032247 | 65 | 119 | 0.0 | 1.7 | 0.00 | 0.00 | 0.00 | 72 | 1005.3 |
| 20260505031745 | 65 | 87 | 0.9 | 1.7 | 0.00 | 0.00 | 0.00 | 72 | 1005.2 |
| 20260505031241 | 65 | 97 | 0.9 | 2.6 | 0.00 | 0.00 | 0.00 | 71 | 1005.3 |
| 20260505030738 | 65 | 197 | 0.0 | 5.2 | 0.00 | 0.00 | 0.00 | 71 | 1005.2 |
| 20260505030234 | 64 | 255 | 2.6 | 4.3 | 0.00 | 0.00 | 0.00 | 72 | 1005.3 |
| 20260505025730 | 64 | 83 | 4.3 | 5.2 | 0.00 | 0.00 | 0.00 | 73 | 1005.2 |
| 20260505025229 | 65 | 204 | 3.5 | 8.7 | 0.00 | 0.00 | 0.00 | 71 | 1005.3 |
| 20260505024726 | 64 | 218 | 2.6 | 4.3 | 0.00 | 0.00 | 0.00 | 72 | 1005.2 |
| 20260505024223 | 64 | 260 | 2.6 | 4.3 | 0.00 | 0.00 | 0.00 | 71 | 1005.1 |
| 20260505023721 | 64 | 46 | 1.7 | 5.2 | 0.00 | 0.00 | 0.00 | 72 | 1005.2 |
| 20260505023218 | 64 | 251 | 1.7 | 1.7 | 0.00 | 0.00 | 0.00 | 71 | 1005.1 |
| 20260505022715 | 64 | 295 | 2.6 | 5.2 | 0.00 | 0.00 | 0.00 | 71 | 1005.4 |
| 20260505022212 | 64 | 173 | 3.5 | 4.3 | 0.00 | 0.00 | 0.00 | 72 | 1005.4 |
| 20260505021709 | 63 | 114 | 1.7 | 2.6 | 0.00 | 0.00 | 0.00 | 73 | 1005.2 |
| 20260505021206 | 64 | 120 | 0.0 | 4.3 | 0.00 | 0.00 | 0.00 | 72 | 1005.2 |
| 20260505020701 | 63 | 219 | 1.7 | 2.6 | 0.00 | 0.00 | 0.00 | 75 | 1005.4 |
| 20260505020157 | 63 | 87 | 0.9 | 4.3 | 0.00 | 0.00 | 0.00 | 71 | 1005.1 |
| 20260505015655 | 64 | 127 | 0.9 | 1.7 | 0.00 | 0.00 | 0.00 | 71 | 1005.3 |
| 20260505015151 | 64 | 143 | 3.5 | 4.3 | 0.00 | 0.00 | 0.00 | 74 | 1005.1 |
| 20260505014648 | 64 | 214 | 2.6 | 2.6 | 0.00 | 0.00 | 0.00 | 71 | 1005.1 |
| 20260505014145 | 64 | 264 | 1.7 | 4.3 | 0.00 | 0.00 | 0.00 | 71 | 1005.2 |
| 20260505013642 | 63 | 252 | 2.6 | 2.6 | 0.00 | 0.00 | 0.00 | 74 | 1005.3 |
| 20260505013139 | 62 | 217 | 2.6 | 4.3 | 0.00 | 0.00 | 0.00 | 74 | 1005.0 |
| 20260505012638 | 62 | 125 | 1.7 | 1.7 | 0.00 | 0.00 | 0.00 | 73 | 1005.0 |
| 20260505012134 | 63 | 167 | 0.9 | 0.9 | 0.00 | 0.00 | 0.00 | 75 | 1005.0 |
| 20260505011630 | 63 | 314 | 2.6 | 4.3 | 0.00 | 0.00 | 0.00 | 73 | 1004.8 |
| 20260505011127 | 62 | 8 | 2.6 | 2.6 | 0.00 | 0.00 | 0.00 | 74 | 1004.8 |
| 20260505010622 | 63 | 243 | 0.9 | 1.7 | 0.00 | 0.00 | 0.00 | 73 | 1004.9 |
| 20260505010119 | 64 | 164 | 0.0 | 1.7 | 0.00 | 0.00 | 0.00 | 74 | 1004.7 |
| 20260505005615 | 65 | 144 | 0.9 | 1.7 | 0.00 | 0.00 | 0.00 | 69 | 1004.9 |
| 20260505005113 | 66 | 181 | 0.9 | 1.7 | 0.00 | 0.00 | 0.00 | 67 | 1004.9 |
| 20260505004609 | 66 | 185 | 0.9 | 2.6 | 0.00 | 0.00 | 0.00 | 69 | 1004.7 |
| 20260505004106 | 66 | 191 | 0.9 | 2.6 | 0.00 | 0.00 | 0.00 | 67 | 1004.9 |
| 20260505003604 | 66 | 111 | 1.7 | 1.7 | 0.00 | 0.00 | 0.00 | 68 | 1004.8 |
| 20260505003101 | 66 | 76 | 0.9 | 1.7 | 0.00 | 0.00 | 0.00 | 67 | 1004.7 |
| 20260505002556 | 67 | 228 | 1.7 | 4.3 | 0.00 | 0.00 | 0.00 | 66 | 1004.5 |
| 20260505002055 | 67 | 72 | 0.0 | 0.9 | 0.00 | 0.00 | 0.00 | 65 | 1004.9 |
| 20260505001552 | 68 | 262 | 1.7 | 2.6 | 0.00 | 0.00 | 0.00 | 64 | 1004.6 |
| 20260505001049 | 68 | 152 | 1.7 | 4.3 | 0.00 | 0.00 | 0.00 | 64 | 1004.7 |
| 20260505000546 | 68 | 205 | 2.6 | 6.1 | 0.00 | 0.00 | 0.00 | 63 | 1004.5 |
| 20260505000044 | 68 | 234 | 0.9 | 1.7 | 0.00 | 0.00 | 0.00 | 63 | 1004.8 |
| 20260504235540 | 68 | 110 | 0.9 | 2.6 | 0.00 | 0.00 | 0.00 | 62 | 1004.6 |
| 20260504235037 | 69 | 220 | 2.6 | 4.3 | 0.00 | 0.00 | 0.00 | 63 | 1004.6 |
| 20260504234534 | 69 | 120 | 1.7 | 2.6 | 0.00 | 0.00 | 0.00 | 62 | 1004.9 |
| 20260504234031 | 69 | 23 | 2.6 | 6.1 | 0.00 | 0.00 | 0.00 | 61 | 1005.1 |
| 20260504233526 | 69 | 104 | 0.0 | 2.6 | 0.00 | 0.00 | 0.00 | 61 | 1004.9 |
| 20260504233024 | 69 | 191 | 1.7 | 2.6 | 0.00 | 0.00 | 0.00 | 61 | 1005.0 |
| 20260504232521 | 69 | 221 | 3.5 | 5.2 | 0.00 | 0.00 | 0.00 | 61 | 1004.9 |
| 20260504232018 | 69 | 55 | 0.9 | 7.8 | 0.00 | 0.00 | 0.00 | 60 | 1005.0 |
| 20260504231515 | 70 | 288 | 3.5 | 7.0 | 0.00 | 0.00 | 0.00 | 60 | 1004.9 |
| 20260504231011 | 70 | 134 | 2.6 | 7.0 | 0.00 | 0.00 | 0.00 | 59 | 1005.3 |
| 20260504230507 | 71 | 142 | 0.9 | 1.7 | 0.00 | 0.00 | 0.00 | 59 | 1005.0 |
| 20260504230006 | 71 | 247 | 6.1 | 9.6 | 0.00 | 0.00 | 0.00 | 58 | 1005.1 |
| 20260504225503 | 72 | 67 | 6.1 | 9.6 | 0.00 | 0.00 | 0.00 | 57 | 1005.1 |
| 20260504225000 | 71 | 293 | 5.2 | 7.0 | 0.00 | 0.00 | 0.00 | 59 | 1005.2 |
| 20260504224456 | 70 | 266 | 6.1 | 7.8 | 0.00 | 0.00 | 0.00 | 59 | 1005.3 |
| 20260504223953 | 71 | 220 | 0.9 | 5.2 | 0.00 | 0.00 | 0.00 | 59 | 1005.2 |
| 20260504223450 | 71 | 184 | 1.7 | 13.0 | 0.00 | 0.00 | 0.00 | 59 | 1004.8 |
| 20260504222945 | 71 | 231 | 0.9 | 7.8 | 0.00 | 0.00 | 0.00 | 59 | 1005.2 |
| 20260504222443 | 72 | 303 | 2.6 | 4.3 | 0.00 | 0.00 | 0.00 | 59 | 1005.0 |
| 20260504221940 | 72 | 220 | 1.7 | 7.0 | 0.00 | 0.00 | 0.00 | 59 | 1005.1 |
| 20260504221437 | 73 | 236 | 1.7 | 4.3 | 0.00 | 0.00 | 0.00 | 58 | 1004.9 |
| 20260504220934 | 72 | 272 | 1.7 | 4.3 | 0.00 | 0.00 | 0.00 | 58 | 1005.0 |
| 20260504220431 | 71 | 211 | 0.9 | 7.8 | 0.00 | 0.00 | 0.00 | 60 | 1004.9 |
| 20260504215928 | 71 | 227 | 3.5 | 7.8 | 0.00 | 0.00 | 0.00 | 60 | 1004.8 |
| 20260504215425 | 71 | 167 | 0.9 | 5.2 | 0.00 | 0.00 | 0.00 | 59 | 1005.1 |
| 20260504214921 | 72 | 147 | 1.7 | 6.1 | 0.00 | 0.00 | 0.00 | 59 | 1005.0 |
| 20260504214418 | 71 | 339 | 2.6 | 12.2 | 0.00 | 0.00 | 0.00 | 58 | 1005.0 |
| 20260504213915 | 71 | 279 | 5.2 | 7.8 | 0.00 | 0.00 | 0.00 | 59 | 1005.3 |
| 20260504213410 | 71 | 126 | 1.7 | 14.8 | 0.00 | 0.00 | 0.00 | 58 | 1005.3 |
| 20260504212908 | 71 | 238 | 1.7 | 5.2 | 0.00 | 0.00 | 0.00 | 58 | 1005.3 |
| 20260504212404 | 72 | 237 | 3.5 | 12.2 | 0.00 | 0.00 | 0.00 | 58 | 1005.4 |
| 20260504211902 | 74 | 190 | 5.2 | 9.6 | 0.00 | 0.00 | 0.00 | 56 | 1005.1 |
| 20260504211358 | 73 | 198 | 3.5 | 5.2 | 0.00 | 0.00 | 0.00 | 57 | 1005.2 |
| 20260504210855 | 73 | 277 | 4.3 | 12.2 | 0.00 | 0.00 | 0.00 | 55 | 1005.4 |
| 20260504210352 | 73 | 102 | 4.3 | 9.6 | 0.00 | 0.00 | 0.00 | 55 | 1005.4 |
| 20260504205849 | 73 | 243 | 9.6 | 12.2 | 0.00 | 0.00 | 0.00 | 56 | 1005.5 |
| 20260504205347 | 74 | 262 | 6.1 | 7.8 | 0.00 | 0.00 | 0.00 | 55 | 1005.3 |
| 20260504204845 | 75 | 251 | 4.3 | 7.0 | 0.00 | 0.00 | 0.00 | 56 | 1005.2 |
| 20260504204343 | 74 | 232 | 3.5 | 6.1 | 0.00 | 0.00 | 0.00 | 58 | 1005.0 |
| 20260504203842 | 74 | 239 | 2.6 | 6.1 | 0.00 | 0.00 | 0.00 | 56 | 1005.2 |
| 20260504203339 | 73 | 105 | 3.5 | 6.1 | 0.00 | 0.00 | 0.00 | 56 | 1005.1 |
| 20260504202834 | 72 | 171 | 0.0 | 5.2 | 0.00 | 0.00 | 0.00 | 58 | 1005.4 |
| 20260504202332 | 72 | 250 | 3.5 | 9.6 | 0.00 | 0.00 | 0.00 | 57 | 1005.3 |
| 20260504201828 | 73 | 231 | 2.6 | 9.6 | 0.00 | 0.00 | 0.00 | 56 | 1005.1 |
| 20260504201326 | 73 | 231 | 1.7 | 2.6 | 0.00 | 0.00 | 0.00 | 55 | 1005.1 |
| 20260504200823 | 73 | 283 | 2.6 | 9.6 | 0.00 | 0.00 | 0.00 | 57 | 1005.2 |
| 20260504200319 | 72 | 279 | 5.2 | 11.3 | 0.00 | 0.00 | 0.00 | 56 | 1005.3 |
| 20260504195815 | 73 | 240 | 3.5 | 6.1 | 0.00 | 0.00 | 0.00 | 55 | 1005.3 |
| 20260504195311 | 72 | 245 | 2.6 | 7.8 | 0.00 | 0.00 | 0.00 | 57 | 1005.5 |
| 20260504194809 | 72 | 1 | 2.6 | 9.6 | 0.00 | 0.00 | 0.00 | 56 | 1005.4 |
| 20260504194305 | 72 | 240 | 5.2 | 7.0 | 0.00 | 0.00 | 0.00 | 60 | 1005.3 |
| 20260504193801 | 71 | 220 | 2.6 | 8.7 | 0.00 | 0.00 | 0.00 | 58 | 1005.3 |
| 20260504193258 | 71 | 235 | 1.7 | 4.3 | 0.00 | 0.00 | 0.00 | 58 | 1005.3 |
| 20260504192757 | 72 | 233 | 2.6 | 5.2 | 0.00 | 0.00 | 0.00 | 57 | 1005.3 |
| 20260504192254 | 73 | 198 | 0.9 | 5.2 | 0.00 | 0.00 | 0.00 | 58 | 1005.6 |
| 20260504191753 | 73 | 216 | 3.5 | 8.7 | 0.00 | 0.00 | 0.00 | 56 | 1005.5 |
| 20260504191250 | 73 | 129 | 6.1 | 9.6 | 0.00 | 0.00 | 0.00 | 54 | 1005.9 |
| 20260504190745 | 73 | 222 | 7.8 | 15.6 | 0.00 | 0.00 | 0.00 | 57 | 1005.7 |
| 20260504190242 | 74 | 280 | 5.2 | 11.3 | 0.00 | 0.00 | 0.00 | 57 | 1005.9 |
| 20260504185738 | 73 | 215 | 2.6 | 6.1 | 0.00 | 0.00 | 0.00 | 58 | 1005.7 |
| 20260504185235 | 72 | 271 | 6.1 | 13.9 | 0.00 | 0.00 | 0.00 | 58 | 1005.9 |
| 20260504184731 | 72 | 231 | 3.5 | 7.8 | 0.00 | 0.00 | 0.00 | 60 | 1006.4 |
| 20260504184227 | 73 | 244 | 4.3 | 8.7 | 0.00 | 0.00 | 0.00 | 58 | 1005.9 |
| 20260504183723 | 73 | 255 | 2.6 | 2.6 | 0.00 | 0.00 | 0.00 | 59 | 1006.0 |
| 20260504183220 | 73 | 281 | 6.1 | 7.8 | 0.00 | 0.00 | 0.00 | 58 | 1006.1 |
| 20260504182718 | 73 | 252 | 1.7 | 7.0 | 0.00 | 0.00 | 0.00 | 57 | 1006.1 |
| 20260504182215 | 72 | 86 | 2.6 | 4.3 | 0.00 | 0.00 | 0.00 | 57 | 1006.0 |
| 20260504181713 | 72 | 213 | 6.1 | 7.8 | 0.00 | 0.00 | 0.00 | 60 | 1006.1 |
| 20260504181210 | 72 | 238 | 0.9 | 5.2 | 0.00 | 0.00 | 0.00 | 59 | 1006.1 |
| 20260504180709 | 72 | 247 | 0.0 | 7.0 | 0.00 | 0.00 | 0.00 | 59 | 1006.1 |
| 20260504180207 | 72 | 205 | 2.6 | 4.3 | 0.00 | 0.00 | 0.00 | 57 | 1006.1 |
| 20260504175704 | 71 | 123 | 3.5 | 6.1 | 0.00 | 0.00 | 0.00 | 58 | 1006.3 |
| 20260504175201 | 71 | 254 | 2.6 | 2.6 | 0.00 | 0.00 | 0.00 | 59 | 1006.4 |
| 20260504174659 | 71 | 131 | 3.5 | 4.3 | 0.00 | 0.00 | 0.00 | 58 | 1006.7 |
| 20260504174156 | 70 | 243 | 4.3 | 11.3 | 0.00 | 0.00 | 0.00 | 62 | 1006.4 |
| 20260504173653 | 70 | 30 | 1.7 | 6.1 | 0.00 | 0.00 | 0.00 | 62 | 1006.6 |
| 20260504173150 | 71 | 100 | 2.6 | 5.2 | 0.00 | 0.00 | 0.00 | 57 | 1006.5 |
| 20260504172646 | 71 | 307 | 7.8 | 12.2 | 0.00 | 0.00 | 0.00 | 60 | 1006.9 |
| 20260504172143 | 70 | 255 | 1.7 | 6.1 | 0.00 | 0.00 | 0.00 | 62 | 1006.8 |
| 20260504171639 | 69 | 242 | 3.5 | 5.2 | 0.00 | 0.00 | 0.00 | 59 | 1006.7 |
| 20260504171137 | 69 | 113 | 1.7 | 6.1 | 0.00 | 0.00 | 0.00 | 60 | 1006.8 |
| 20260504170633 | 70 | 208 | 4.3 | 6.1 | 0.00 | 0.00 | 0.00 | 60 | 1006.9 |
| 20260504170131 | 69 | 120 | 2.6 | 5.2 | 0.00 | 0.00 | 0.00 | 61 | 1006.8 |
| 20260504151016 | 65 | 11 | 2.6 | 5.2 | 0.00 | 0.00 | 0.00 | 62 | 1007.9 |
| 20260504150514 | 64 | 214 | 1.7 | 6.1 | 0.00 | 0.00 | 0.00 | 63 | 1008.0 |
| 20260504140939 | 61 | 261 | 6.1 | 9.6 | 0.00 | 0.00 | 0.00 | 61 | 1008.6 |
| 20260504140436 | 61 | 291 | 6.1 | 7.0 | 0.00 | 0.00 | 0.00 | 61 | 1008.6 |
| 20260504130401 | 57 | 257 | 4.3 | 7.0 | 0.00 | 0.00 | 0.00 | 66 | 1009.1 |
| 20260504110248 | 46 | 125 | 0.0 | 0.9 | 0.00 | 0.00 | 0.00 | 79 | 1009.2 |
| 20260504100206 | 47 | 135 | 0.0 | 1.7 | 0.00 | 0.00 | 0.00 | 74 | 1009.1 |
| 20260504090128 | 48 | 200 | 0.9 | 1.7 | 0.00 | 0.00 | 0.00 | 76 | 1009.9 |
| 20260504081558 | 51 | 128 | 0.0 | 0.9 | 0.00 | 0.00 | 0.00 | 72 | 1010.2 |
| 20260504081054 | 52 | 136 | 0.9 | 1.7 | 0.00 | 0.00 | 0.00 | 66 | 1010.1 |
| 20260504080551 | 52 | 169 | 0.0 | 2.6 | 0.00 | 0.00 | 0.00 | 65 | 1010.2 |